Location: Wells
(51.2093°N, 2.6446°W)
Time: 10:36:41
(UTC+01:00)

LilacSat-2 - Pass Details

Date: 23 March 2026
Orbit: 412 x 424 km, 97.5° (Epoch: 20 April)

Event Time Altitude Azimuth Distance (km) Brightness Sun altitude
Rises 19:17:11 0° 170° (S) 2,388 ? -8.3°
Reaches altitude 10° 19:19:12 10° 172° (S) 1,526 ? -8.7°
Maximum altitude 19:22:27 71° 257° (WSW) 460 ? -9.2°
Drops below altitude 10° 19:25:44 10° 342° (NNW) 1,536 ? -9.6°
Sets 19:27:45 0° 345° (NNW) 2,406 ? -10.0°
